OpenBCM V1.08-5-g2f4a (Linux)

Packet Radio Mailbox

IZ3LSV

[San Dona' di P. JN]

 Login: GUEST





  
LU9DCE > KEPS     31.12.16 03:03l 199 Lines 9617 Bytes #999 (0) @ WW
BID : 16377_LU9DCE
Read: GUEST
Subj: TLE OF dic 2016
Path: IZ3LSV<ED1ZAC<CX2SA<LU9DCE
Sent: 161231/0101Z @:LU9DCE.TOR.BA.ARG.SOAM #:16377 [TORTUGUITAS] $:16377_LU9DC
From: LU9DCE@LU9DCE.TOR.BA.ARG.SOAM
To  : KEPS@ALL

OSCAR 3
1 01293U 65016F   16365.22326069 -.00000031  00000-0  14086-4 0  9992
2 01293  70.0749 335.1328 0014113  96.0172 264.2548 14.06129024646594
OSCAR 5
1 04321U 70008B   16364.85765310 -.00000027  00000-0  11043-3 0  9992
2 04321 101.7735  67.8034 0028095 136.3140 276.6877 12.52169357145291
OSCAR 6
1  6236U 72082B   16364.84770193 -.00000043 +00000-0 +89822-5 0  9997
2  6236 101.6845 326.5985 0003913 290.3387 123.9423 12.53134436022011
OSCAR 7
1 07530U 74089B   16364.88790880 -.00000049  00000-0 -29964-4 0  9990
2 07530 101.6057 331.0839 0011842 292.0023  95.9157 12.53624835927641
OSCAR 8
1 10703U 78026B   16365.88033102 -.00000236  00000-0 -13352-3 0  9990
2 10703  98.8623 327.6964 0007103  83.8825 303.1436 13.99213232981059
OSCAR 10
1 14129U 83058B   16361.27786102  .00000144  00000-0  00000+0 0  9999
2 14129  26.8628  62.2042 6017060 259.0106 232.7892  2.05865178224250
OSCAR 11 (UoSAT 2)
1 14781U 84021B   16365.74233296  .00000092  00000-0  17679-4 0  9998
2 14781  97.7228  51.4346 0009346  39.7075 320.4822 14.82843394765380
OSCAR 16 (PACSAT)
1 20439U 90005D   16365.78523664  .00000012  00000-0  20639-4 0  9991
2 20439  98.5941 300.3620 0009906 303.2943  86.2000 14.32662219407292
OSCAR 17 (DOVE)
1 20440U 90005E   16365.83534803  .00000017  00000-0  22123-4 0  9991
2 20440  98.5745 299.7155 0009796 287.1815 133.1277 14.33055651407537
OSCAR 18 (WEBERSAT)
1 20441U 90005F   16365.41237387  .00000008  00000-0  19057-4 0  9995
2 20441  98.5774 298.5954 0010498 298.1289 173.2185 14.32709764407322
OSCAR 19 (LUSAT)
1 20442U 90005G   16364.87417701 -.00000005 +00000-0 +14243-4 0  9995
2 20442 098.5620 297.2408 0010743 290.4449 069.5581 14.32843894407318
JAS 1B (FUJI 2)
1 20480U 90013C   16365.86438456 -.00000009  00000-0  46275-4 0  9990
2 20480  99.0258 164.7502 0540917  52.4357 312.4622 12.83413420260136
COSMOS 2123
1 21089U 91007A   16365.63853036  .00000007  00000-0 -82516-5 0  9997
2 21089  82.9217  22.9053 0028437 215.3221 284.6321 13.74642315299453
OSCAR 22 (UoSAT 5)
1 21575U 91050B   16365.04872248  .00000015  00000-0  19313-4 0  9998
2 21575  98.7623  11.3717 0008422  84.7664 275.4484 14.40777316336925
OSCAR 23 (KITSAT 1)
1 22077U 92052B   16365.22097870 -.00000068  00000-0 -24249-4 0  9993
2 22077  66.0859 320.4801 0000857 173.6051 283.6275 12.86516379145657
KITSAT B
1 22825U 93061C   16364.86468097 -.00000005  00000-0  15698-4 0  9995
2 22825  98.7884 322.5934 0009442 104.0079 256.2153 14.29981301213203
POSAT 1
1 22826U 93061D   16364.86456956  .00000001  00000-0  18023-4 0  9997
2 22826  98.7826 322.6949 0010013  95.7735 264.4588 14.30308479213370
ITAMSAT
1 22828U 93061F   16365.87873558 -.00000017  00000-0  10845-4 0  9994
2 22828  98.7737 322.5709 0010885  65.0144 295.2167 14.30618759181876
EYESAT A
1 22829U 93061G   16365.90743421 -.00000000  00000-0  17122-4 0  9991
2 22829  98.7771 325.2116 0010671  56.7684   4.6149 14.30953617214005
RADIO ROSTO
1 23439U 94085A   16364.81357314 -.00000055 +00000-0 -33915-3 0  9995
2 23439 064.8154 133.1186 0167641 274.6045 241.9197 11.27565206906314
JAS 2
1 24278U 96046B   16365.71797867  .00000023  00000-0  57956-4 0  9992
2 24278  98.5836 265.1931 0351167  53.8524 309.4576 13.53073463  6095
TMSAT
1 25396U 98043C   16365.85710854  .00000012  00000-0  23756-4 0  9998
2 25396  98.5653 307.8608 0003755  93.8636 266.2972 14.24422990960208
TECHSAT 1B
1 25397U 98043D   16365.44436414 -.00000019  00000-0  10727-4 0  9993
2 25397  98.5919 305.5089 0002220 110.5725 249.5692 14.23611782959786
SEDSAT 1
1 25509U 98061B   16365.14104187  .00000215  00000-0  29569-4 0  9995
2 25509  31.4342 304.3761 0347021 321.4894  36.1438 14.30245972949927
PAN SAT
1 25520U 98064B   16364.89855973  .00000790  00000-0  20141-4 0  9993
2 25520  28.4570  57.1705 0004841 288.2059  71.8009 15.28118351  8365
ISS (ZARYA)
1 25544U 98067A   16365.77045194  .00001369  00000-0  28113-4 0  9996
2 25544  51.6426 157.8722 0006859  34.7477  40.8006 15.53960993 35565
OSCAR 36 (UOSAT 12)
1 25693U 99021A   16364.93748694 -.00000049 +00000-0 +12347-4 0  9991
2 25693 064.5568 287.2965 0018078 327.6926 032.3070 14.80706223954836
OPAL
1 26063U 00004C   16365.82047053 -.00000007  00000-0  17409-4 0  9994
2 26063 100.2133 332.1670 0037112  63.4851 297.0128 14.36647588887219
SAUDISAT 1A
1 26545U 00057A   16365.86738451  .00000038  00000-0  22443-4 0  9997
2 26545  64.5542 249.1093 0053105 250.2435 109.2940 14.84682764879350
TIUNGSAT 1
1 26548U 00057D   16364.97221498  .00000069  00000-0  24072-4 0  9993
2 26548  64.5497 169.0233 0046117 247.4613 112.1612 14.88907755880905
SAUDISAT 1B
1 26549U 00057E   16364.89406686 -.00000010  00000-0  17261-4 0  9998
2 26549  64.5546 285.3092 0057772 252.8981 106.5793 14.83301279878530
AMSAT OSCAR 40
1 26609U 00072B   16364.29448097 -.00000186  00000-0  00000+0 0  9990
2 26609   6.5420 259.7372 7963641  60.5829 354.7633  1.25587821 74206
PCSAT
1 26931U 01043C   16365.88308204 -.00000033  00000-0  19315-4 0  9993
2 26931  67.0499 165.4364 0006089 281.2808  78.7609 14.30441468796272
SAPPHIRE
1 26932U 01043D   16364.91861620 -.00000072 +00000-0 +43034-5 0  9992
2 26932 067.0545 170.0227 0004533 290.0959 069.9654 14.30235669796098
RUBIN 2
1 27605U 02058A   16365.18569989 -.00000038  00000-0  15241-4 0  9990
2 27605  64.5560 263.9037 0045195 167.6653 192.5567 14.74867732754556
SAUDISAT 1C
1 27607U 02058C   16365.89271694  .00000013  00000-0  22503-4 0  9994
2 27607  64.5561 279.8183 0044256 167.6922 192.5273 14.75265982754287
MOZHAYETS 4
1 27939U 03042A   16365.87291794  .00000103  00000-0  26949-4 0  9995
2 27939  97.9134 150.3059 0013877  45.1378 108.7171 14.66505658708648
AMSAT ECHO
1 28375U 04025K   16365.38389368  .00000031  00000-0  22254-4 0  9998
2 28375  98.3465 296.4669 0083764  72.8239 288.2100 14.41817487657490
HAMSAT
1 28650U 05017B   16364.89800308  .00000329  00000-0  40995-4 0  9995
2 28650  97.6304 339.2066 0022981 334.5623  25.4462 14.88524528630985
SSETI-EXPRESS
1 28894U 05043E   16365.06957603  .00000054  00000-0  19930-4 0  9995
2 28894  97.8578 164.2893 0016499 335.8264  24.2162 14.61407656595635
MOZ.5/SAFIR/RUBIN 5/SL-8
1 28898U 05043G   16365.40804260  .00000035  00000-0  16517-4 0  9994
2 28898  97.9009 156.7515 0019794   2.5079 357.6217 14.60154826595203
PEHUENSAT 1
1 29712U 07001D   16364.83884995  .00002300  00000-0  13994-3 0  9997
2 29712  97.5658  24.7499 0008494 130.5169 229.6802 15.11409143541758
DELFI C3
1 32789U 08021G   16365.16421301  .00001479  00000-0  11061-3 0  9992
2 32789  97.5836  60.8217 0011751 321.2326  38.8056 15.04237289471459
YUBELEINY
1 32953U 08025A   16365.42601247  .00000005  00000-0 -33541-4 0  9990
2 32953  82.5030 344.6065 0017972 296.2862  63.6371 12.43074142390456
PRISM (HITOMI)
1 33493U 09002B   16365.69173374  .00000769  00000-0  75357-4 0  9997
2 33493  98.1903 234.7943 0014270 282.0940  77.8671 14.95388153430599
STARS (KUKAI)
1 33498U 09002G   16365.08585150  .00000265  00000-0  44010-4 0  9997
2 33498  98.3063 167.5235 0011361 166.0518 317.4923 14.78446794426911
KKS-1 (KISEKI)
1 33499U 09002H   16365.17975666  .00000140  00000-0  28735-4 0  9991
2 33499  98.3104 159.8214 0009081 184.9316 175.1804 14.75114184426447
SUMBANDILA
1 35870U 09049F   16365.89847403  .00005151  00000-0  88839-4 0  9991
2 35870  97.1096  18.3118 0002514  34.3664  84.9303 15.51469792407116
XIWANG-1 (HOPE-1)
1 36122U 09072B   16365.83636377 -.00000042  00000-0  24199-5 0  9993
2 36122 100.1200  33.5208 0006882 262.7038  97.3293 13.16337618338470
JUGNU
1 37839U 11058B   16365.47266491  .00000313  00000-0  25106-4 0  9990
2 37839  19.9626  33.4568 0019173 123.2372  21.1172 14.12567172269811
SRMSAT
1 37841U 11058D   16364.58658869  .00000274  00000-0  53752-5 0  9993
2 37841  19.9726  77.0219 0012026  18.9719 122.1258 14.10561328269303
RAX-2
1 37853U 11061D   16365.22960704  .00001476  00000-0  92023-4 0  9994
2 37853 101.7091 140.8333 0177912 226.5062 132.1242 15.00739009281290
AUBIESAT-1
1 37854U 11061E   16365.84693196  .00002341  00000-0  13401-3 0  9995
2 37854 101.7031 147.8499 0169827 212.8275 146.2296 15.03359504281639
M-CUBED/EXP-1 PRIME
1 37855U 11061F   16364.94044558 +.00003209 +00000-0 +17700-3 0  9998
2 37855 101.7156 144.4057 0183215 221.1274 137.6006 15.02295472280904
CHIBIS-M
1 38051U 11062C   14288.65876392  .70201582  12497-4  27925-2 0  9995
2 38051 051.5964 324.1908 0006422 269.6897 186.8903 16.43533377153081
MASAT-1
1 38081U 12006E   15009.86954674  .36181825  49011-5  43735-3 0  9992
2 38081 069.4150 141.5751 0006093 101.2598 259.4750 16.49686879155248


======================================================================
I realize that command does have its fascination, even under
circumstances such as these, but I neither enjoy the idea of command
nor am I frightened of it.  It simply exists, and I will do whatever
logically needs to be done.
		-- Spock, "The Galileo Seven", stardate 2812.7
======================================================================
        __  __  __ __
|  /  \(__\|  \/  |_    BBS GF05OM TORTUGUITAS
|__\__/ __/|__/\__|__   TELNET LU9DCE.DYNU.COM PORT 6300
== power by linux ===   LU9DCE.AMPR.ORG // 44.153.32.97

----------------------------------------------------------------------

RADIO PACKET INTERNACIONAL
""""""""""""""""""""""""""
FACEBOOK ## https://www.facebook.com/groups/newpacketradio/
TELEGRAM ## https://telegram.me/joinchat/DZ6hA0DZVgLS53Hg0SWP8w
VK       ## https://vk.com/packetradio

======================================================================

RADAR AERONAUTICO ARGENTINA http://aviones.dynu.com
///////////////////////////////////////////////////



Read previous mail | Read next mail


 06.05.2025 12:20:37lGo back Go up